Regional Weather Roundup
Issued by NWS

Home | Current Version | Previous Version | Graphics & Text | Print | Product List | Glossary Off
Versions: 1 2 3 4 5 6 7 8 9 10 11 12 13 14 15 16 17 18 19 20 21 22 23 24 25 26 27 28 29 30 31 32 33 34 35 36 37 38 39 40 41 42 43 44 45 46 47 48 49 50

000
ASUS43 KFSD 290710
RWRSD

WEATHER ROUNDUP FOR SOUTH DAKOTA
NATIONAL WEATHER SERVICE SIOUX FALLS SD
200 AM CDT SAT APR 29 2017

NOTE: "FAIR" INDICATES FEW OR NO CLOUDS BELOW 12,000 FEET WITH NO
SIGNIFICANT WEATHER AND/OR OBSTRUCTIONS TO VISIBILITY.


SDZ001>005-009-010-012>017-290800-
NORTHWEST AND NORTH CENTRAL SOUTH DAKOTA

CITY           SKY/WX    TMP DP  RH WIND       PRES   REMARKS
BUFFALO          N/A     40  27  59 SW5       30.13S
FAITH            N/A     42  14  32 E5        30.20S
MOBRIDGE       MOCLDY    33  17  51 CALM      30.20R
$$

SDZ012>016-024>037-041>051-057-063-072>074-290800-
SOUTHWEST AND SOUTH CENTRAL SOUTH DAKOTA

CITY           SKY/WX    TMP DP  RH WIND       PRES   REMARKS
RAPID CTY ARPT CLOUDY    32  20  61 NE8       30.17F WCI  25
PIERRE         PTCLDY    32  20  61 NE5       30.19F WCI  27
CUSTER         CLEAR     28  18  66 NE7       30.11F WCI  21
ELLSWORTH AFB  CLOUDY    37  24  61 NW3       30.17F
PHILIP         PTCLDY    31  27  85 W3        30.20S
PINE RIDGE     CLEAR     30  26  85 SE6       30.17R WCI  24
SPEARFISH      FAIR      32  27  80 SW6       30.19S WCI  26
WINNER         PTSUNNY   38  25  59 NE7       30.18F
$$

SDZ004>011-016>023-039-040-290800-
NORTHEAST SOUTH DAKOTA

CITY           SKY/WX    TMP DP  RH WIND       PRES   REMARKS
ABERDEEN       CLOUDY    33  23  66 NW5       30.22R WCI  29
WATERTOWN      CLEAR     29  20  69 NW3       30.20R
BROOKINGS      CLOUDY    33  23  66 CALM      30.19R
SISSETON         N/A     28  23  81 N7        30.19S WCI  21
$$

SDZ017-020-022-023-036>040-048>070-290800-
SOUTHEAST SOUTH DAKOTA

CITY           SKY/WX    TMP DP  RH WIND       PRES   REMARKS
SIOUX FALLS    MOCLDY    36  27  69 NE6       30.18R
HURON          PTCLDY    30  21  69 CALM      30.21R
CHAMBERLAIN    MOCLDY    41  23  49 N3        30.20S
MITCHELL       CLOUDY    32  24  72 N5        30.21R WCI  27
YANKTON        CLOUDY    43  27  52 N8        30.17S
$$

ABBREVIATIONS USED IN REMARKS
   TC - TEMPERATURE IN CELSIUS
  WCI - WIND CHILL INDEX
   HX - HEAT INDEX
  VSB - VISIBILITY





USA.gov is the U.S. government's official web portal to all federal, state and local government web resources and services.